| time (UTC) | temp F | wind direction | speed knots | gust knots | rain 1hr in | rain 24hr in | rain mn in | humidity % | barometer mb |
| 20260503213525 | 57 | 303 | 4.3 | 7.8 | 0.00 | 0.00 | 0.00 | 98 | |
| 20260503212533 | 57 | 315 | 0.0 | 0.9 | 0.00 | 0.17 | 0.17 | 99 | |
| 20260503211521 | 57 | 0.0 | 0.0 | 0.00 | 0.17 | 0.17 | 99 | ||
| 20260503210530 | 56 | 295 | 5.2 | 11.3 | 0.00 | 0.00 | 0.00 | 99 | |
| 20260503205539 | 57 | 0.0 | 0.0 | 0.00 | 0.17 | 0.17 | 99 | ||
| 20260503205521 | 56 | 282 | 2.6 | 7.0 | 0.00 | 0.00 | 0.00 | 99 | |
| 20260503204534 | 56 | 291 | 3.5 | 7.8 | 0.00 | 0.00 | 0.00 | 99 | |
| 20260503204526 | 57 | 0.0 | 0.0 | 0.00 | 0.17 | 0.17 | 99 | ||
| 20260503203554 | 56 | 0.0 | 0.0 | 0.00 | 0.17 | 0.17 | 99 | ||
| 20260503203548 | 56 | 286 | 2.6 | 7.0 | 0.00 | 0.00 | 0.00 | 99 | |
| 20260503202529 | 56 | 303 | 2.6 | 7.0 | 0.00 | 0.00 | 0.00 | 99 | |
| 20260503202523 | 56 | 0.0 | 0.0 | 0.01 | 0.17 | 0.17 | 99 | ||
| 20260503201531 | 56 | 0.0 | 0.0 | 0.01 | 0.17 | 0.17 | 99 | ||
| 20260503201521 | 56 | 277 | 2.6 | 5.2 | 0.00 | 0.00 | 0.00 | 99 | |
| 20260503200529 | 56 | 287 | 3.5 | 9.6 | 0.00 | 0.00 | 0.00 | 99 | |
| 20260503200522 | 56 | 0.0 | 0.0 | 0.01 | 0.17 | 0.17 | 99 | ||
| 20260503195549 | 56 | 0.0 | 0.0 | 0.01 | 0.17 | 0.17 | 99 | ||
| 20260503195545 | 56 | 289 | 2.6 | 6.1 | 0.00 | 0.00 | 0.00 | 99 | |
| 20260503194536 | 56 | 0.0 | 0.0 | 0.01 | 0.17 | 0.17 | 99 | ||
| 20260503194534 | 56 | 283 | 3.5 | 8.7 | 0.00 | 0.00 | 0.00 | 99 | |
| 20260503193546 | 56 | 0.0 | 0.0 | 0.01 | 0.17 | 0.17 | 99 | ||
| 20260503193542 | 56 | 256 | 1.7 | 4.3 | 0.00 | 0.00 | 0.00 | 99 | |
| 20260503192534 | 56 | 0.0 | 0.0 | 0.00 | 0.16 | 0.16 | 99 | ||
| 20260503192529 | 56 | 268 | 1.7 | 2.6 | 0.00 | 0.00 | 0.00 | 98 | |
| 20260503191523 | 56 | 0.0 | 0.0 | 0.00 | 0.16 | 0.16 | 99 | ||
| 20260503191521 | 56 | 273 | 1.7 | 5.2 | 0.00 | 0.00 | 0.00 | 98 | |
| 20260503190531 | 56 | 0.0 | 0.0 | 0.01 | 0.16 | 0.16 | 99 | ||
| 20260503190529 | 56 | 268 | 1.7 | 5.2 | 0.00 | 0.00 | 0.00 | 98 | |
| 20260503185522 | 56 | 266 | 1.7 | 5.2 | 0.00 | 0.00 | 0.00 | 98 | |
| 20260503184529 | 56 | 256 | 1.7 | 4.3 | 0.00 | 0.00 | 0.00 | 98 | |
| 20260503183535 | 56 | 0.0 | 0.0 | 0.03 | 0.16 | 0.16 | 99 | ||
| 20260503183521 | 56 | 284 | 3.5 | 7.8 | 0.00 | 0.00 | 0.00 | 98 | |
| 20260503182549 | 56 | 273 | 2.6 | 6.1 | 0.00 | 0.00 | 0.00 | 98 | |
| 20260503182544 | 56 | 0.0 | 0.0 | 0.04 | 0.16 | 0.16 | 99 | ||
| 20260503181553 | 56 | 0.0 | 0.0 | 0.04 | 0.16 | 0.16 | 99 | ||
| 20260503181523 | 56 | 269 | 2.6 | 7.0 | 0.00 | 0.00 | 0.00 | 98 | |
| 20260503180549 | 56 | 267 | 1.7 | 5.2 | 0.00 | 0.00 | 0.00 | 98 | |
| 20260503180545 | 56 | 0.0 | 0.0 | 0.03 | 0.15 | 0.15 | 99 | ||
| 20260503175530 | 56 | 0.0 | 0.0 | 0.03 | 0.15 | 0.15 | 99 | ||
| 20260503175521 | 56 | 274 | 1.7 | 4.3 | 0.00 | 0.00 | 0.00 | 98 | |
| 20260503174529 | 56 | 276 | 1.7 | 4.3 | 0.00 | 0.00 | 0.00 | 98 | |
| 20260503174520 | 56 | 0.0 | 0.0 | 0.03 | 0.14 | 0.14 | 99 | ||
| 20260503173548 | 56 | 0.0 | 0.0 | 0.03 | 0.13 | 0.13 | 99 | ||
| 20260503173523 | 56 | 280 | 2.6 | 7.8 | 0.00 | 0.00 | 0.00 | 98 | |
| 20260503172535 | 56 | 0.0 | 0.0 | 0.02 | 0.12 | 0.12 | 99 | ||
| 20260503172532 | 56 | 267 | 2.6 | 5.2 | 0.00 | 0.00 | 0.00 | 98 | |
| 20260503171525 | 56 | 0.0 | 0.0 | 0.03 | 0.12 | 0.12 | 99 | ||
| 20260503171522 | 56 | 274 | 3.5 | 7.0 | 0.00 | 0.00 | 0.00 | 98 | |
| 20260503170613 | 56 | 0.0 | 0.0 | 0.04 | 0.12 | 0.12 | 99 | ||
| 20260503150534 | 58 | 0.0 | 0.0 | 0.06 | 0.06 | 0.06 | 99 | ||
| 20260503150529 | 58 | 285 | 2.6 | 6.1 | 0.00 | 0.00 | 0.00 | 96 | |
| 20260503130536 | 59 | 0.0 | 0.0 | 0.00 | 0.00 | 0.00 | 99 | ||
| 20260503130534 | 59 | 263 | 2.6 | 5.2 | 0.00 | 0.00 | 0.00 | 87 | |
| 20260503110531 | 59 | 236 | 0.9 | 1.7 | 0.00 | 0.00 | 0.00 | 89 | |
| 20260503081525 | 62 | 251 | 1.7 | 4.3 | 0.00 | 0.00 | 0.00 | 77 | |
| 20260503081028 | 62 | 0.0 | 0.0 | 0.00 | 0.00 | 0.00 | 99 | ||
| 20260503080529 | 62 | 246 | 2.6 | 6.1 | 0.00 | 0.00 | 0.00 | 76 | |
| 20260503072550 | 62 | 0.0 | 0.0 | 0.00 | 0.00 | 0.00 | 75 | ||
| 20260503071522 | 63 | 0.0 | 0.0 | 0.00 | 0.00 | 0.00 | 74 | ||
| 20260503070530 | 63 | 0.0 | 0.0 | 0.00 | 0.00 | 0.00 | 73 | ||
| 20260503054529 | 66 | 277 | 1.7 | 4.3 | 0.00 | 0.00 | 0.00 | 67 | |
| 20260503053522 | 66 | 273 | 2.6 | 5.2 | 0.00 | 0.00 | 0.00 | 66 | |
| 20260503052530 | 67 | 286 | 5.2 | 11.3 | 0.00 | 0.00 | 0.00 | 64 | |
| 20260503051536 | 68 | 0.0 | 0.0 | 0.00 | 0.00 | 0.00 | 99 | ||
| 20260503051522 | 67 | 280 | 3.5 | 9.6 | 0.00 | 0.00 | 0.00 | 64 | |
| 20260503050530 | 67 | 258 | 1.7 | 5.2 | 0.00 | 0.00 | 0.00 | 64 | |
| 20260503050525 | 69 | 0.0 | 0.0 | 0.00 | 0.00 | 0.00 | 99 | ||
| 20260503045526 | 68 | 249 | 3.5 | 9.6 | 0.00 | 0.00 | 0.00 | 64 | |
| 20260503044530 | 68 | 275 | 2.6 | 5.2 | 0.00 | 0.00 | 0.00 | 63 | |
| 20260503044026 | 70 | 0.0 | 0.0 | 0.00 | 0.00 | 0.00 | 99 | ||
| 20260503043522 | 68 | 286 | 3.5 | 7.0 | 0.00 | 0.00 | 0.00 | 61 | |
| 20260503043055 | 69 | 0.0 | 0.0 | 0.00 | 0.00 | 0.00 | 99 | ||
| 20260503042530 | 68 | 320 | 2.6 | 5.2 | 0.00 | 0.00 | 0.00 | 61 | |
| 20260503042252 | 0 | 0.0 | 0.0 | 0.00 | 0.00 | 0.00 | |||
| 20260503041524 | 67 | 266 | 3.5 | 9.6 | 0.00 | 0.00 | 0.00 | 64 | |
| 20260503041032 | 69 | 0.0 | 0.0 | 0.00 | 0.00 | 0.00 | 99 | ||
| 20260503040531 | 67 | 292 | 3.5 | 8.7 | 0.00 | 0.00 | 0.00 | 64 | |
| 20260503040021 | 69 | 0.0 | 0.0 | 0.00 | 0.00 | 0.00 | 99 | ||
| 20260503035522 | 70 | 297 | 3.5 | 7.0 | 0.00 | 0.00 | 0.00 | 59 | |
| 20260503034915 | 70 | 0.0 | 0.9 | 0.00 | 0.00 | 0.00 | 99 | ||
| 20260503034530 | 69 | 295 | 5.2 | 13.0 | 0.00 | 0.00 | 0.00 | 60 | |
| 20260503033524 | 69 | 305 | 3.5 | 7.8 | 0.00 | 0.00 | 0.00 | 59 | |
| 20260503032608 | 71 | 0.0 | 0.0 | 0.00 | 0.00 | 0.00 | 99 | ||
| 20260503032531 | 70 | 311 | 4.3 | 8.7 | 0.00 | 0.00 | 0.00 | 58 | |
| 20260503031522 | 71 | 0.0 | 0.0 | 0.00 | 0.00 | 0.00 | 99 | ||
| 20260503030613 | 67 | 277 | 3.5 | 7.0 | 0.00 | 0.00 | 0.00 | 62 | |
| 20260503030527 | 70 | 0.0 | 0.0 | 0.00 | 0.00 | 0.00 | 99 | ||
| 20260503025535 | 70 | 338 | 0.0 | 3.5 | 0.00 | 0.00 | 0.00 | 99 | |
| 20260503025526 | 68 | 299 | 3.5 | 6.1 | 0.00 | 0.00 | 0.00 | 61 | |
| 20260503024530 | 67 | 291 | 5.2 | 13.0 | 0.00 | 0.00 | 0.00 | 63 | |
| 20260503024525 | 69 | 274 | 0.9 | 6.1 | 0.00 | 0.00 | 0.00 | 99 | |
| 20260503023552 | 68 | 0.0 | 0.0 | 0.00 | 0.00 | 0.00 | 99 | ||
| 20260503023544 | 67 | 288 | 3.5 | 7.8 | 0.00 | 0.00 | 0.00 | 64 | |
| 20260503022530 | 66 | 294 | 3.5 | 7.0 | 0.00 | 0.00 | 0.00 | 63 | |
| 20260503022522 | 69 | 0.0 | 0.0 | 0.00 | 0.00 | 0.00 | 99 | ||
| 20260503021529 | 69 | 315 | 0.9 | 4.3 | 0.00 | 0.00 | 0.00 | 99 | |
| 20260503021523 | 67 | 318 | 4.3 | 9.6 | 0.00 | 0.00 | 0.00 | 63 | |
| 20260503020537 | 68 | 288 | 0.9 | 4.3 | 0.00 | 0.00 | 0.00 | 99 | |
| 20260503020530 | 65 | 290 | 3.5 | 8.7 | 0.00 | 0.00 | 0.00 | 65 | |
| 20260503015526 | 67 | 0.0 | 0.0 | 0.00 | 0.00 | 0.00 | 99 | ||
| 20260503014615 | 68 | 0.0 | 0.0 | 0.00 | 0.00 | 0.00 | 99 | ||
| 20260503014613 | 66 | 305 | 4.3 | 9.6 | 0.00 | 0.00 | 0.00 | 65 | |
| 20260503013524 | 69 | 0.0 | 0.0 | 0.00 | 0.00 | 0.00 | 99 | ||
| 20260503013522 | 66 | 288 | 1.7 | 5.2 | 0.00 | 0.00 | 0.00 | 66 | |
| 20260503012531 | 69 | 0.0 | 0.0 | 0.00 | 0.00 | 0.00 | 99 | ||
| 20260503011625 | 66 | 0.0 | 0.0 | 0.00 | 0.00 | 0.00 | 99 | ||
| 20260503010530 | 63 | 20 | 0.9 | 4.3 | 0.00 | 0.00 | 0.00 | 73 | |
| 20260503005541 | 65 | 0.0 | 0.0 | 0.00 | 0.00 | 0.00 | 99 | ||
| 20260503005522 | 62 | 319 | 0.9 | 2.6 | 0.00 | 0.00 | 0.00 | 74 | |
| 20260503004530 | 61 | 17 | 1.7 | 2.6 | 0.00 | 0.00 | 0.00 | 78 | |
| 20260503004526 | 63 | 0.0 | 0.0 | 0.00 | 0.00 | 0.00 | 99 | ||
| 20260503003615 | 62 | 0.0 | 0.0 | 0.00 | 0.00 | 0.00 | 99 | ||
| 20260503003542 | 60 | 57 | 0.9 | 2.6 | 0.00 | 0.00 | 0.00 | 79 | |
| 20260503002530 | 60 | 91 | 0.9 | 2.6 | 0.00 | 0.00 | 0.00 | 79 | |
| 20260503002525 | 62 | 0.0 | 0.0 | 0.00 | 0.00 | 0.00 | 99 | ||
| 20260503001551 | 60 | 0.0 | 0.0 | 0.00 | 0.00 | 0.00 | 99 | ||
| 20260503001542 | 59 | 176 | 0.0 | 0.9 | 0.00 | 0.00 | 0.00 | 81 | |
| 20260503000530 | 59 | 69 | 0.9 | 2.6 | 0.00 | 0.00 | 0.00 | 81 | |
| 20260503000525 | 61 | 0.0 | 0.0 | 0.00 | 0.00 | 0.00 | 99 | ||
| 20260502235529 | 60 | 0.0 | 0.0 | 0.00 | 0.00 | 0.00 | 99 | ||
| 20260502235526 | 59 | 55 | 0.0 | 1.7 | 0.00 | 0.00 | 0.00 | 80 | |
| 20260502234536 | 60 | 0.0 | 0.0 | 0.00 | 0.00 | 0.00 | 99 | ||
| 20260502234530 | 59 | 233 | 0.0 | 0.9 | 0.00 | 0.00 | 0.00 | 81 | |
| 20260502233526 | 59 | 0.0 | 0.0 | 0.00 | 0.00 | 0.00 | 99 | ||
| 20260502233524 | 59 | 307 | 0.9 | 2.6 | 0.00 | 0.00 | 0.00 | 80 | |
| 20260502232533 | 59 | 0.0 | 0.0 | 0.00 | 0.00 | 0.00 | 99 | ||
| 20260502232530 | 58 | 0.0 | 0.0 | 0.00 | 0.00 | 0.00 | 82 | ||
| 20260502231526 | 59 | 0.0 | 0.0 | 0.00 | 0.00 | 0.00 | 99 | ||
| 20260502231522 | 58 | 171 | 0.0 | 0.9 | 0.00 | 0.00 | 0.00 | 82 | |
| 20260502230532 | 58 | 0.0 | 0.0 | 0.00 | 0.00 | 0.00 | 83 | ||
| 20260502225524 | 59 | 0.0 | 0.0 | 0.00 | 0.00 | 0.00 | 99 | ||
| 20260502224531 | 58 | 0.0 | 0.0 | 0.00 | 0.00 | 0.00 | 99 | ||
| 20260502223536 | 57 | 0.0 | 0.0 | 0.00 | 0.00 | 0.00 | 99 | ||
| 20260502223524 | 57 | 165 | 0.0 | 0.9 | 0.00 | 0.00 | 0.00 | 86 | |
| 20260502222531 | 56 | 120 | 0.0 | 0.9 | 0.00 | 0.00 | 0.00 | 86 | |
| 20260502222526 | 56 | 0.0 | 0.0 | 0.00 | 0.00 | 0.00 | 99 | ||
| 20260502221522 | 56 | 239 | 0.0 | 0.9 | 0.00 | 0.00 | 0.00 | 88 | |
| 20260502220532 | 55 | 94 | 0.0 | 2.6 | 0.00 | 0.00 | 0.00 | 88 | |
| 20260502215523 | 55 | 206 | 1.7 | 2.6 | 0.00 | 0.00 | 0.00 | 89 | |
| 20260502215034 | 54 | 0.0 | 0.0 | 0.00 | 0.00 | 0.00 | 99 | ||
| 20260502214530 | 54 | 247 | 0.9 | 2.6 | 0.00 | 0.00 | 0.00 | 91 |